WZZ8208 LHBP-LATI

Flight info

Callsign WZZ8208
Flight time 1h 5m
Altitude 37000
Route FAHAZ DCT KEROP DCT TORTO/N0445F360 DCT YUYUH/N0447F370 DCT AKIKA/N0445F360 DCT INLOT
Aircraft A321/M-SDE1E2E3FGIJ1J4RWXY/LB1

Departure

Time 2026-05-08 14:14
Airport Budapest Liszt Ferenc International Airport (LHBP)

Arrival

Time 2026-05-08 15:19
Airport Tirana International Airport Mother Teresa (LATI)
Time Latitude Longitude Altitude Speed Heading
2026-05-08 13:38 47.43537 19.26435 458 ft 0 kts 222°
2026-05-08 14:06 47.43536 19.26434 485 ft 0 kts 222°
2026-05-08 14:06 47.43537 19.26435 485 ft 1 kts 222°
2026-05-08 14:06 47.43550 19.26452 456 ft 4 kts 218°
2026-05-08 14:06 47.43561 19.26493 456 ft 6 kts 280°
2026-05-08 14:07 47.43541 19.26550 456 ft 0 kts 308°
2026-05-08 14:07 47.43542 19.26550 456 ft 0 kts 308°
2026-05-08 14:08 47.43545 19.26545 458 ft 1 kts 309°
2026-05-08 14:08 47.43557 19.26523 456 ft 5 kts 311°
2026-05-08 14:08 47.43598 19.26457 456 ft 12 kts 313°
2026-05-08 14:08 47.43663 19.26341 457 ft 17 kts 298°
2026-05-08 14:09 47.43677 19.26169 457 ft 18 kts 270°
2026-05-08 14:09 47.43714 19.26003 456 ft 16 kts 313°
2026-05-08 14:09 47.43708 19.25870 457 ft 14 kts 222°
2026-05-08 14:09 47.43630 19.25771 457 ft 15 kts 221°
2026-05-08 14:10 47.43549 19.25663 457 ft 16 kts 222°
2026-05-08 14:10 47.43463 19.25547 457 ft 17 kts 222°
2026-05-08 14:10 47.43374 19.25427 457 ft 18 kts 222°
2026-05-08 14:10 47.43280 19.25302 456 ft 19 kts 222°
2026-05-08 14:11 47.43190 19.25181 457 ft 15 kts 222°
2026-05-08 14:11 47.43111 19.25075 456 ft 16 kts 222°
2026-05-08 14:11 47.43074 19.24993 457 ft 6 kts 287°
2026-05-08 14:11 47.43089 19.24960 456 ft 0 kts 304°
2026-05-08 14:12 47.43092 19.24953 456 ft 1 kts 305°
2026-05-08 14:12 47.43102 19.24934 457 ft 3 kts 307°
2026-05-08 14:12 47.43104 19.24930 457 ft 0 kts 309°
2026-05-08 14:13 47.43170 19.24824 455 ft 45 kts 313°
2026-05-08 14:13 47.43551 19.24208 451 ft 116 kts 313°
2026-05-08 14:13 47.44234 19.23087 460 ft 172 kts 308°
2026-05-08 14:13 47.45072 19.21737 986 ft 177 kts 311°
2026-05-08 14:14 47.45902 19.20405 1800 ft 175 kts 312°
2026-05-08 14:14 47.46738 19.19056 2207 ft 190 kts 312°
2026-05-08 14:14 47.47685 19.17525 2459 ft 212 kts 311°
2026-05-08 14:14 47.48660 19.15706 2781 ft 238 kts 297°
2026-05-08 14:15 47.49220 19.13324 3435 ft 255 kts 278°
2026-05-08 14:15 47.49172 19.10708 4198 ft 261 kts 258°
2026-05-08 14:15 47.48462 19.08219 5019 ft 267 kts 237°
2026-05-08 14:15 47.47132 19.06248 5810 ft 273 kts 213°
2026-05-08 14:16 47.45412 19.05142 6571 ft 278 kts 198°
2026-05-08 14:16 47.43536 19.04270 6886 ft 281 kts 198°
2026-05-08 14:16 47.41683 19.03407 6964 ft 280 kts 198°
2026-05-08 14:16 47.39820 19.02538 6979 ft 280 kts 198°
2026-05-08 14:17 47.37980 19.01676 6983 ft 280 kts 198°
2026-05-08 14:17 47.36136 19.00665 7475 ft 283 kts 207°
2026-05-08 14:17 47.34374 18.99372 8339 ft 284 kts 207°
2026-05-08 14:17 47.32616 18.98106 9119 ft 286 kts 206°
2026-05-08 14:18 47.30790 18.96840 9915 ft 289 kts 206°
2026-05-08 14:18 47.28952 18.95588 10339 ft 304 kts 206°
2026-05-08 14:18 47.26961 18.94239 10532 ft 326 kts 206°
2026-05-08 14:18 47.24926 18.92862 11033 ft 336 kts 205°
2026-05-08 14:19 47.22790 18.91419 11786 ft 340 kts 205°
2026-05-08 14:19 47.20663 18.89979 12546 ft 343 kts 206°
2026-05-08 14:19 47.18495 18.88510 13329 ft 345 kts 206°
2026-05-08 14:19 47.16294 18.87014 14034 ft 348 kts 206°
2026-05-08 14:20 47.14061 18.85578 14641 ft 351 kts 200°
2026-05-08 14:20 47.11666 18.84861 15213 ft 357 kts 185°
2026-05-08 14:20 47.09191 18.85093 15809 ft 363 kts 170°
2026-05-08 14:20 47.06788 18.86296 16405 ft 370 kts 155°
2026-05-08 14:21 47.04591 18.88373 16983 ft 376 kts 146°
2026-05-08 14:21 47.02487 18.90590 17569 ft 379 kts 146°
2026-05-08 14:21 47.00326 18.92864 18167 ft 383 kts 146°
2026-05-08 14:21 46.98160 18.95141 18691 ft 387 kts 146°
2026-05-08 14:22 46.95954 18.97453 19190 ft 390 kts 146°
2026-05-08 14:22 46.93730 18.99778 19691 ft 394 kts 146°
2026-05-08 14:22 46.91455 19.02153 20207 ft 398 kts 147°
2026-05-08 14:22 46.89213 19.04490 20707 ft 401 kts 147°
2026-05-08 14:23 46.86951 19.06771 21184 ft 405 kts 148°
2026-05-08 14:23 46.84562 19.09047 21703 ft 408 kts 150°
2026-05-08 14:23 46.82127 19.11283 22208 ft 412 kts 150°
2026-05-08 14:23 46.79712 19.13468 22679 ft 415 kts 150°
2026-05-08 14:24 46.77256 19.15694 23168 ft 419 kts 150°
2026-05-08 14:24 46.74789 19.17950 23623 ft 422 kts 150°
2026-05-08 14:24 46.72280 19.20267 24004 ft 425 kts 150°
2026-05-08 14:24 46.69787 19.22582 24396 ft 427 kts 150°
2026-05-08 14:25 46.67295 19.24902 24807 ft 429 kts 150°
2026-05-08 14:25 46.64751 19.27266 25209 ft 432 kts 150°
2026-05-08 14:25 46.62248 19.29582 25602 ft 434 kts 151°
2026-05-08 14:25 46.59666 19.31964 25987 ft 436 kts 151°
2026-05-08 14:26 46.57113 19.34321 26369 ft 438 kts 151°
2026-05-08 14:26 46.54497 19.36736 26752 ft 440 kts 151°
2026-05-08 14:26 46.51961 19.39076 27119 ft 442 kts 151°
2026-05-08 14:26 46.49355 19.41473 27498 ft 443 kts 152°
2026-05-08 14:27 46.46732 19.43875 27879 ft 445 kts 152°
2026-05-08 14:27 46.44138 19.46247 28243 ft 447 kts 152°
2026-05-08 14:27 46.41469 19.48689 28589 ft 449 kts 152°
2026-05-08 14:27 46.38857 19.51081 28955 ft 451 kts 152°
2026-05-08 14:28 46.36185 19.53526 29306 ft 453 kts 152°
2026-05-08 14:28 46.33493 19.55982 29639 ft 455 kts 152°
2026-05-08 14:28 46.30855 19.58384 29989 ft 457 kts 152°
2026-05-08 14:28 46.28158 19.60837 30294 ft 458 kts 152°
2026-05-08 14:29 46.25478 19.63278 30599 ft 460 kts 152°
2026-05-08 14:29 46.22749 19.65745 30905 ft 460 kts 154°
2026-05-08 14:29 46.19876 19.67772 31211 ft 455 kts 163°
2026-05-08 14:29 46.16904 19.69079 31638 ft 447 kts 172°
2026-05-08 14:30 46.13831 19.69708 32065 ft 439 kts 181°
2026-05-08 14:30 46.10841 19.69782 32475 ft 436 kts 184°
2026-05-08 14:30 46.07772 19.69811 32906 ft 434 kts 184°
2026-05-08 14:30 46.04806 19.69848 33320 ft 432 kts 184°
2026-05-08 14:31 46.01796 19.69895 33736 ft 430 kts 184°
2026-05-08 14:31 45.98832 19.69942 34126 ft 428 kts 184°
2026-05-08 14:31 45.95848 19.69986 34458 ft 427 kts 184°
2026-05-08 14:32 45.89914 19.70072 35050 ft 427 kts 184°
2026-05-08 14:32 45.86949 19.70113 35344 ft 426 kts 184°
2026-05-08 14:32 45.84001 19.70156 35637 ft 426 kts 184°
2026-05-08 14:32 45.81034 19.70202 35919 ft 426 kts 184°
2026-05-08 14:33 45.78062 19.70248 36205 ft 426 kts 184°
2026-05-08 14:33 45.75099 19.70294 36478 ft 426 kts 184°
2026-05-08 14:33 45.72140 19.70340 36741 ft 426 kts 184°
2026-05-08 14:33 45.69182 19.70380 36977 ft 426 kts 184°
2026-05-08 14:34 45.63259 19.70456 37027 ft 425 kts 184°
2026-05-08 14:34 45.57343 19.70529 37028 ft 425 kts 184°
2026-05-08 14:35 45.51422 19.70614 37023 ft 424 kts 184°
2026-05-08 14:35 45.45564 19.70699 37020 ft 424 kts 184°
2026-05-08 14:36 45.39661 19.70787 37024 ft 424 kts 184°
2026-05-08 14:36 45.33756 19.70869 37029 ft 425 kts 184°
2026-05-08 14:37 45.27842 19.70943 37034 ft 425 kts 184°
2026-05-08 14:37 45.21944 19.71030 37036 ft 425 kts 183°
2026-05-08 14:38 45.16033 19.71120 37029 ft 425 kts 183°
2026-05-08 14:38 45.10132 19.71197 37040 ft 426 kts 183°
2026-05-08 14:39 45.04217 19.71282 37037 ft 426 kts 183°
2026-05-08 14:39 44.98303 19.71359 37035 ft 426 kts 183°
2026-05-08 14:40 44.92371 19.71431 37038 ft 426 kts 183°
2026-05-08 14:40 44.86473 19.71509 37034 ft 426 kts 183°
2026-05-08 14:41 44.80527 19.71603 37034 ft 426 kts 183°
2026-05-08 14:41 44.74612 19.71696 37035 ft 427 kts 183°
2026-05-08 14:42 44.68684 19.71774 37033 ft 427 kts 183°
2026-05-08 14:42 44.62744 19.71844 37032 ft 427 kts 183°
2026-05-08 14:43 44.56783 19.71915 37036 ft 428 kts 183°
2026-05-08 14:43 44.50853 19.71991 37034 ft 428 kts 182°
2026-05-08 14:44 44.44905 19.72085 37036 ft 428 kts 182°
2026-05-08 14:44 44.38942 19.72166 37032 ft 429 kts 182°
2026-05-08 14:45 44.32980 19.72236 37035 ft 429 kts 182°
2026-05-08 14:45 44.27012 19.72320 37005 ft 433 kts 182°
2026-05-08 14:46 44.20931 19.72410 36997 ft 436 kts 182°
2026-05-08 14:46 44.14853 19.72501 37002 ft 438 kts 182°
2026-05-08 14:47 44.08806 19.72581 37006 ft 440 kts 182°
2026-05-08 14:47 44.02682 19.72658 37012 ft 441 kts 182°
2026-05-08 14:48 43.96567 19.72734 37016 ft 442 kts 182°
2026-05-08 14:48 43.90411 19.72821 37022 ft 442 kts 182°
2026-05-08 14:49 43.84258 19.72914 37036 ft 443 kts 182°
2026-05-08 14:49 43.78100 19.72996 37034 ft 443 kts 182°
2026-05-08 14:50 43.71925 19.73068 37028 ft 444 kts 182°
2026-05-08 14:50 43.65770 19.72844 37025 ft 440 kts 191°
2026-05-08 14:51 43.59767 19.71532 37025 ft 441 kts 192°
2026-05-08 14:51 43.53717 19.70222 37029 ft 442 kts 191°
2026-05-08 14:52 43.44609 19.68276 37027 ft 442 kts 191°
2026-05-08 14:53 43.38539 19.66966 37025 ft 443 kts 191°
2026-05-08 14:53 43.32451 19.65653 37027 ft 444 kts 191°
2026-05-08 14:54 43.26346 19.64346 37024 ft 444 kts 191°
2026-05-08 14:54 43.20170 19.63638 37032 ft 447 kts 185°
2026-05-08 14:55 43.13927 19.63325 37030 ft 448 kts 185°
2026-05-08 14:55 43.07755 19.63023 37031 ft 449 kts 185°
2026-05-08 14:56 43.01499 19.62730 37034 ft 450 kts 185°
2026-05-08 14:56 42.95255 19.62430 37029 ft 449 kts 185°
2026-05-08 14:57 42.89027 19.62120 37028 ft 450 kts 185°
2026-05-08 14:57 42.82779 19.61815 37031 ft 450 kts 185°
2026-05-08 14:58 42.76494 19.61503 37028 ft 451 kts 185°
2026-05-08 14:58 42.70241 19.61204 37028 ft 451 kts 185°
2026-05-08 14:59 42.63962 19.60897 37027 ft 452 kts 185°
2026-05-08 14:59 42.54579 19.60428 37018 ft 452 kts 187°
2026-05-08 15:00 42.48387 19.59038 36261 ft 452 kts 194°
2026-05-08 15:00 42.45340 19.58201 35709 ft 450 kts 193°
2026-05-08 15:00 42.42282 19.57357 35077 ft 449 kts 193°
2026-05-08 15:01 42.39190 19.56503 34401 ft 450 kts 193°
2026-05-08 15:01 42.36111 19.55654 33516 ft 455 kts 192°
2026-05-08 15:01 42.33029 19.54808 32708 ft 456 kts 192°
2026-05-08 15:01 42.29936 19.53960 31856 ft 458 kts 192°
2026-05-08 15:02 42.26758 19.53092 30943 ft 462 kts 193°
2026-05-08 15:02 42.23624 19.52240 30018 ft 466 kts 193°
2026-05-08 15:02 42.20470 19.51387 28979 ft 468 kts 193°
2026-05-08 15:02 42.17257 19.50518 27981 ft 469 kts 193°
2026-05-08 15:03 42.14059 19.49649 26975 ft 470 kts 193°
2026-05-08 15:03 42.10847 19.48777 25847 ft 474 kts 192°
2026-05-08 15:03 42.07617 19.47902 24731 ft 478 kts 192°
2026-05-08 15:03 42.04358 19.47024 23710 ft 478 kts 192°
2026-05-08 15:04 42.01063 19.46155 22866 ft 473 kts 191°
2026-05-08 15:04 41.97850 19.45750 21898 ft 473 kts 182°
2026-05-08 15:04 41.94600 19.46108 21280 ft 465 kts 172°
2026-05-08 15:04 41.91433 19.46881 20462 ft 458 kts 171°
2026-05-08 15:05 41.88348 19.47631 19338 ft 450 kts 172°
2026-05-08 15:05 41.85322 19.48351 18521 ft 437 kts 172°
2026-05-08 15:05 41.82310 19.49062 17646 ft 434 kts 172°
2026-05-08 15:05 41.79365 19.49755 16855 ft 429 kts 172°
2026-05-08 15:06 41.76464 19.50437 16088 ft 425 kts 172°
2026-05-08 15:06 41.73549 19.51122 15324 ft 420 kts 172°
2026-05-08 15:06 41.70665 19.51799 14569 ft 416 kts 172°
2026-05-08 15:06 41.67833 19.52464 13977 ft 409 kts 173°
2026-05-08 15:07 41.65141 19.53099 13846 ft 391 kts 173°
2026-05-08 15:07 41.62524 19.53684 13728 ft 373 kts 174°
2026-05-08 15:07 41.59992 19.54117 13497 ft 358 kts 176°
2026-05-08 15:07 41.57568 19.54437 13237 ft 345 kts 178°
2026-05-08 15:08 41.55225 19.54708 12976 ft 332 kts 178°
2026-05-08 15:08 41.53697 19.54883 12734 ft 328 kts 178°
2026-05-08 15:08 41.50686 19.55238 12121 ft 323 kts 177°
2026-05-08 15:08 41.48480 19.55515 11666 ft 320 kts 177°
2026-05-08 15:09 41.46255 19.55808 11204 ft 317 kts 176°
2026-05-08 15:09 41.44069 19.56103 10755 ft 314 kts 176°
2026-05-08 15:09 41.41935 19.56396 10449 ft 307 kts 176°
2026-05-08 15:09 41.39866 19.56685 10330 ft 295 kts 176°
2026-05-08 15:10 41.37855 19.56966 10207 ft 283 kts 176°
2026-05-08 15:10 41.35941 19.57231 9990 ft 275 kts 177°
2026-05-08 15:10 41.34074 19.57486 9902 ft 271 kts 177°
2026-05-08 15:10 41.32201 19.57735 9638 ft 272 kts 177°
2026-05-08 15:11 41.30322 19.57988 9276 ft 269 kts 177°
2026-05-08 15:11 41.28480 19.58237 8919 ft 268 kts 177°
2026-05-08 15:11 41.26617 19.58486 8558 ft 267 kts 177°
2026-05-08 15:11 41.24759 19.58737 8198 ft 267 kts 177°
2026-05-08 15:12 41.22917 19.58982 7831 ft 269 kts 177°
2026-05-08 15:12 41.21064 19.59231 7480 ft 265 kts 178°
2026-05-08 15:12 41.19293 19.59807 7126 ft 269 kts 155°
2026-05-08 15:12 41.17935 19.61560 6747 ft 280 kts 122°
2026-05-08 15:13 41.17487 19.64086 6321 ft 292 kts 93°
2026-05-08 15:13 41.17593 19.66776 5850 ft 291 kts 88°
2026-05-08 15:13 41.17808 19.69406 5423 ft 276 kts 86°
2026-05-08 15:13 41.18081 19.71773 5040 ft 264 kts 76°
2026-05-08 15:14 41.18897 19.73608 4696 ft 254 kts 45°
2026-05-08 15:14 41.20419 19.74671 4323 ft 242 kts 10°
2026-05-08 15:14 41.22053 19.74642 3996 ft 233 kts 354°
2026-05-08 15:14 41.23116 19.74503 3742 ft 230 kts 354°
2026-05-08 15:15 41.24702 19.74290 3460 ft 224 kts 355°
2026-05-08 15:15 41.26689 19.74021 3040 ft 205 kts 354°
2026-05-08 15:15 41.28034 19.73840 2773 ft 182 kts 355°
2026-05-08 15:15 41.29249 19.73678 2537 ft 171 kts 358°
2026-05-08 15:16 41.30374 19.73525 2358 ft 158 kts 358°
2026-05-08 15:16 41.31451 19.73381 2130 ft 155 kts 356°
2026-05-08 15:16 41.32505 19.73244 1930 ft 149 kts 358°
2026-05-08 15:16 41.33543 19.73109 1674 ft 150 kts 357°
2026-05-08 15:17 41.34568 19.72977 1436 ft 150 kts 356°
2026-05-08 15:17 41.35606 19.72840 1186 ft 151 kts 354°
2026-05-08 15:17 41.36650 19.72700 969 ft 152 kts 354°
2026-05-08 15:17 41.37705 19.72558 748 ft 153 kts 354°
2026-05-08 15:18 41.38417 19.72465 572 ft 153 kts 355°
2026-05-08 15:18 41.39469 19.72327 326 ft 152 kts 353°
2026-05-08 15:18 41.40530 19.72181 141 ft 146 kts 355°
2026-05-08 15:18 41.41556 19.72047 154 ft 74 kts 354°
2026-05-08 15:19 41.41898 19.72000 148 ft 26 kts 351°
2026-05-08 15:19 41.41977 19.71982 154 ft 12 kts 353°
2026-05-08 15:19 41.42054 19.71972 149 ft 11 kts 355°
2026-05-08 15:19 41.42131 19.71966 150 ft 11 kts 356°
2026-05-08 15:20 41.42203 19.71954 149 ft 10 kts 353°
2026-05-08 15:20 41.42262 19.71933 148 ft 8 kts 326°
2026-05-08 15:20 41.42286 19.71873 151 ft 7 kts 282°
2026-05-08 15:20 41.42288 19.71815 151 ft 6 kts 262°
2026-05-08 15:21 41.42276 19.71728 148 ft 13 kts 258°
2026-05-08 15:21 41.42261 19.71602 149 ft 13 kts 265°
2026-05-08 15:21 41.42287 19.71535 150 ft 5 kts 345°
2026-05-08 15:21 41.42318 19.71531 150 ft 4 kts 349°
2026-05-08 15:22 41.42337 19.71517 146 ft 3 kts 321°
2026-05-08 15:22 41.42341 19.71500 149 ft 3 kts 278°
2026-05-08 15:22 41.42340 19.71471 149 ft 0 kts 266°